Погода в Буор-Сысы

Россия / Республика Саха (Якутия)     66°29′18″N   143°02′57″E
темп.,
°C
ветер,
м/с
пор.,
м/с
влажн.,
%
обл.,
%
осадки,
мм/ч
давл.,
гПа
погр.,
м
27 февраля, сб
сб2723:00−35вюв009653 0.0 103219
02:00−35ссз009815 0.0 103219
05:00−36сз001009 0.0 103119
08:00−37ю0010029 0.0 103119
11:00−33ююз009432 0.0 103131
14:00−30юз108836 0.0 1030165
17:00−30з119326 0.0 102919
20:00−34сз1110015 0.0 102919
28 февраля, вс
вс2823:00−35з1110032 0.0 102919
02:00−35ссз1110075 0.0 102819
05:00−35з1110079 0.0 102619
08:00−36зсз1110096 0.0 102619
11:00−32зсз119695 0.0 102538
14:00−30з118788 0.0 1024211
17:00−29зюз119393 0.0 102319
20:00−34ссз119881 0.0 102419
1 марта, пн
пн123:00−35ссз119878 0.0 102519
02:00−37с1110072 0.0 102419
05:00−37ссз0110071 0.0 102419
08:00−38ссз0110055 0.0 102419
11:00−34з009368 0.0 102337
14:00−32юз108589 0.0 1022221
17:00−31ююз119187 0.0 102219
20:00−35вюв009893 0.0 102319
2 марта, вт
вт223:00−37св0110077 0.0 102319
02:00−38юв1110074 0.0 102419
05:00−38вюв1110072 0.0 102419
08:00−39в0010022 0.0 102519
11:00−34ююв119629 0.0 102533
14:00−32ююз11846 0.0 1024207
17:00−31юз119111 0.0 102420
20:00−34сз119479 0.0 102619
3 марта, ср
ср323:00−34с009389 0.0 102619
02:00−34св0095100 0.0 102619
05:00−34ссз1194100 0.0 102519
08:00−35ссв1195100 0.0 102519
11:00−32сз1191100 0.0 1024116
14:00−30сз2384100 0.0 1021395
17:00−29ссз2384100 0.0 1020475
20:00−31ссз3397100 0.1 101955